Meteo Giornale » Osservazioni meteo Gran Bretagna » Yeovilton

ore: 13:50 - Osservazioni Meteo Yeovilton
Lat. 51° 0' N Lon. 2° 38' W Alt. 23 metri s.l.m.

nuvoloso_piovaschi Europe/London

16 °C

Debole Rovescio di Pioggia

Temp. 24 Ore

11 °C

17 °C

Sud

33.3 Km/h

Dew point 13 °C

Umidità 82 %

Visibilità  5 Km

Il sole sorge alle ore 07:05

Il sole tramonta alle ore 18:57

Data e Ora Cielo e Fenomeni T °C DP °C Um. % Pres. hPa Vis. km Vento km/h
Oggi h: 13:50 nuvoloso_piovaschi Debole Rovescio di Pioggia 16 13 82 1012 5 S 33.3
Oggi h: 13:20 nuvoloso_piovaschi Debole Rovescio di Pioggia 16 13 82 1013 10 S/SO 37
Oggi h: 12:21 nuvoloso_piovaschi Debole Rovescio di Pioggia 16 12 77 1013 5 S 29.6
Oggi h: 11:50 molto_nuvoloso Molto Nuvoloso 16 13 82 1014 10 S 27.8
Oggi h: 11:24 nuvoloso_piovaschi Debole Rovescio di Pioggia 16 12 77 1014 6 S 25.9
Oggi h: 11:20 nuvoloso_piovaschi Debole Rovescio di Pioggia 16 12 77 1014 8 S 25.9
Oggi h: 10:50 molto_nuvoloso Rovescio nelle Vicinanze 16 12 77 1015 10 S/SO 27.8
Oggi h: 10:21 molto_nuvoloso Rovescio nelle Vicinanze 16 12 77 1015 10 S/SO 29.6
Oggi h: 09:50 molto_nuvoloso Rovescio nelle Vicinanze 16 12 77 1015 10 S 25.9
Oggi h: 09:20 molto_nuvoloso Molto Nuvoloso 15 12 82 1015 10 S/SO 20.3
Oggi h: 08:50 molto_nuvoloso Molto Nuvoloso 15 13 87 1015 10 S 16.7
Oggi h: 08:19 molto_nuvoloso Molto Nuvoloso 13 11 87 1016 10 S 14.8
Oggi h: 07:50 molto_nuvoloso Molto Nuvoloso 12 11 93 1016 10 S 16.7
Oggi h: 07:20 molto_nuvoloso Molto Nuvoloso 12 10 87 1016 10 S 14.8
Oggi h: 06:50 coperto_pioggia Pioggia 12 10 87 1016 10 S/SO 22.2
Oggi h: 06:20 coperto_pioggia Pioggia Debole 12 10 87 1016 10 S 13
Oggi h: 05:50 coperto_pioggia Pioggia Debole 13 10 81 1016 10 S 18.5
Oggi h: 03:50 molto_nuvoloso Molto Nuvoloso 13 10 81 1017 10 S 16.7
Oggi h: 02:50 nuvoloso Nuvoloso 12 10 87 1017 10 S 14.8
Oggi h: 01:50 sereno Sereno 12 9 81 1018 10 S 7.4
Oggi h: 00:50 nuvoloso Nuvoloso 11 8 81 1018 10 S/SE 9.3
Ieri h: 23:50 sereno Sereno 11 8 81 1018 10 S 9.3
Ieri h: 23:20 poco_nuvoloso Poco Nuvoloso 12 8 76 1018 10 S 11.1
Ieri h: 22:50 poco_nuvoloso Poco Nuvoloso 13 8 71 1017 10 SO 14.8
Ieri h: 22:20 poco_nuvoloso Poco Nuvoloso 13 8 71 1017 10 SO 16.7
Ieri h: 21:50 poco_nuvoloso Poco Nuvoloso 13 8 71 1017 10 SO 16.7
Ieri h: 21:20 poco_nuvoloso Poco Nuvoloso 13 8 71 1017 10 SO 18.5
Ieri h: 20:50 poco_nuvoloso Poco Nuvoloso 13 8 71 1017 10 SO 14.8
Ieri h: 20:20 poco_nuvoloso Poco Nuvoloso 13 7 66 1016 10 SO 9.3
Ieri h: 19:50 poco_nuvoloso Poco Nuvoloso 13 7 66 1016 10 SO 11.1
Ieri h: 19:20 poco_nuvoloso Poco Nuvoloso 14 8 67 1016 10 SO 11.1
Ieri h: 18:50 poco_nuvoloso Poco Nuvoloso 14 8 67 1015 10 SO 11.1
Ieri h: 18:20 poco_nuvoloso Poco Nuvoloso 15 9 67 1015 10 O/SO 7.4
Ieri h: 17:50 poco_nuvoloso Rovescio nelle Vicinanze 16 8 58 1015 10 O/SO 14.8
Ieri h: 17:25 poco_nuvoloso Poco Nuvoloso 16 7 55 1014 10 O/SO 20.3
Ieri h: 16:50 poco_nuvoloso Poco Nuvoloso 17 8 55 1014 10 SO 24
Ieri h: 16:22 poco_nuvoloso Poco Nuvoloso 17 8 55 1014 10 SO 20.3
Ieri h: 15:50 poco_nuvoloso Poco Nuvoloso 17 7 51 1013 10 SO 24
Ieri h: 15:23 poco_nuvoloso Poco Nuvoloso 17 6 48 1013 10 O/SO 25.9
Ieri h: 14:50 poco_nuvoloso Poco Nuvoloso 17 8 55 1013 10 O/SO 22.2